EW1479 Weather Reports


Display with metric or nautical units.
time (UTC)temp
F
wind
direction
speed
MPH
gust
MPH
rain 1hr
in
rain 24hr
in
rain mn
in
humidity
%
barometer
mb
20260831151813 68 284 2.0 3.0 0.14 0.33 0.33 77 1024.1
20260831144811 67 221 1.0 4.0 0.10 0.27 0.27 78 1024.1
20260831143326 67 230 0.0 3.0 0.09 0.21 0.21 75 1023.9
20260831141815 67 207 1.0 2.0 0.09 0.19 0.19 73 1023.8
20260831140329 67 239 0.0 2.0 0.09 0.19 0.19 72 1023.7
20260831134817 66 113 0.0 3.0 0.07 0.17 0.17 72 1023.7
20260831133312 66 99 0.0 0.0 0.02 0.12 0.12 72 1024.1
20260831131819 67 98 0.0 0.0 0.00 0.10 0.10 70 1024.0
20260831130320 66 99 0.0 0.0 0.01 0.10 0.10 68 1023.7
20260831124828 66 99 0.0 0.0 0.01 0.10 0.10 69 1023.7
20260831123324 66 103 0.0 1.0 0.01 0.10 0.10 68 1023.7
20260831121812 66 103 0.0 0.0 0.01 0.10 0.10 68 1023.8
20260831114856 65 103 0.0 1.0 0.00 0.09 0.09 70 1024.0
20260831113326 65 127 1.0 3.0 0.00 0.09 0.09 70 1024.0
20260831111814 65 163 0.0 0.0 0.00 0.09 0.09 71 1024.3
20260831110311 65 169 0.0 0.0 0.00 0.09 0.09 72 1024.2
20260831104819 65 217 0.0 1.0 0.01 0.09 0.09 72 1024.0
20260831103318 65 103 1.0 2.0 0.01 0.09 0.09 73 1023.8
20260831101831 65 191 0.0 0.0 0.02 0.09 0.09 73 1023.9
20260831100320 65 189 0.0 0.0 0.03 0.09 0.09 74 1024.0
20260831094835 65 232 0.0 1.0 0.04 0.08 0.08 74 1024.1
20260831093324 65 226 0.0 1.0 0.06 0.08 0.08 76 1024.2
20260831091812 65 266 0.0 1.0 0.07 0.07 0.07 77 1024.3
20260831090355 65 218 0.0 2.0 0.06 0.06 0.06 78 1024.2
20260831084816 65 188 0.0 0.0 0.04 0.04 0.04 80 1024.3
20260831083333 65 162 0.0 2.0 0.02 0.02 0.02 81 1024.3
20260831081825 65 136 0.0 1.0 0.00 0.00 0.00 82 1024.5
20260831080315 65 193 0.0 1.0 0.00 0.00 0.00 83 1024.4
20260831074830 66 238 0.0 0.0 0.00 0.00 0.00 83 1024.2
20260831073347 66 163 0.0 2.0 0.00 0.00 0.00 83 1024.3
20260831071814 66 238 1.0 3.0 0.00 0.00 0.00 81 1024.4
20260831070326 65 201 1.0 3.0 0.00 0.00 0.00 79 1024.5
20260831064839 65 188 0.0 0.0 0.00 0.00 0.00 79 1024.5
20260831063327 65 221 0.0 0.0 0.00 0.00 0.00 79 1024.6
20260831061841 65 219 0.0 2.0 0.00 0.00 0.00 79 1024.6
20260831060312 64 129 0.0 0.0 0.00 0.00 0.00 80 1024.6
20260831054852 64 129 0.0 0.0 0.00 0.00 0.00 79 1024.6
20260831053320 64 113 0.0 0.0 0.00 0.00 0.00 81 1024.7
20260831051832 64 113 0.0 0.0 0.00 0.00 0.00 79 1024.7
20260831050322 64 113 0.0 1.0 0.00 0.00 0.00 80 1024.8
20260831044810 64 243 0.0 0.0 0.00 0.00 0.00 81 1025.1
20260831043325 64 242 0.0 0.0 0.00 0.00 0.00 78 1025.3
20260831041811 63 241 0.0 0.0 0.00 0.00 0.00 79 1025.0
20260831040329 63 242 0.0 0.0 0.00 0.00 0.00 79 1024.9
20260831034831 63 242 0.0 0.0 0.00 0.00 0.00 78 1024.9
20260831033323 62 219 0.0 1.0 0.00 0.00 0.00 80 1025.0
20260831031812 62 226 0.0 0.0 0.00 0.00 0.00 82 1025.0
20260831030330 62 163 0.0 0.0 0.00 0.00 0.00 84 1025.0
20260831024819 62 163 0.0 0.0 0.00 0.00 0.00 85 1024.9
20260831023314 62 163 0.0 1.0 0.00 0.00 0.00 86 1024.9
20260831021848 62 163 0.0 0.0 0.00 0.00 0.00 87 1025.1
20260831020317 63 209 0.0 0.0 0.00 0.00 0.00 88 1025.0
20260831014851 63 208 0.0 0.0 0.00 0.00 0.00 88 1025.2
20260831013328 63 174 0.0 1.0 0.00 0.00 0.00 88 1025.1
20260831011837 63 223 0.0 1.0 0.00 0.00 0.00 89 1025.0
20260831010311 64 184 0.0 2.0 0.00 0.00 0.00 89 1024.8
20260831004827 64 259 1.0 3.0 0.00 0.00 0.00 89 1024.7
20260831003337 64 195 1.0 5.0 0.00 0.00 0.00 90 1024.4
20260831001830 65 225 1.0 6.0 0.00 0.00 0.00 90 1024.3
20260831000343 65 225 2.0 4.0 0.00 0.00 0.00 89 1024.3
20260830234828 66 200 3.0 7.0 0.00 0.00 0.00 89 1024.2
20260830233323 66 167 0.0 0.0 0.00 0.00 0.00 89 1024.1
20260830231812 66 218 0.0 0.0 0.00 0.00 0.00 88 1024.1
20260830230330 67 193 0.0 0.0 0.00 0.00 0.00 88 1024.1
20260830224819 67 227 0.0 1.0 0.00 0.00 0.00 88 1024.2
20260830223314 67 249 0.0 1.0 0.00 0.00 0.00 87 1024.3
20260830221821 67 298 0.0 1.0 0.00 0.00 0.00 87 1024.2
20260830220316 67 231 0.0 2.0 0.00 0.00 0.00 88 1024.3
20260830214852 67 257 1.0 5.0 0.00 0.00 0.00 88 1024.3
20260830213320 67 295 1.0 4.0 0.00 0.00 0.00 88 1024.1
20260830211814 67 257 0.0 5.0 0.00 0.00 0.00 88 1024.3
20260830210350 67 259 1.0 3.0 0.00 0.00 0.00 89 1024.3
20260830204820 68 245 0.0 3.0 0.00 0.00 0.00 88 1024.4
20260830203337 68 288 2.0 4.0 0.00 0.00 0.00 86 1024.4
20260830201824 69 274 1.0 8.0 0.00 0.00 0.00 86 1024.3
20260830200322 69 276 1.0 6.0 0.00 0.00 0.00 85 1024.2
20260830194829 69 265 2.0 4.0 0.00 0.00 0.00 84 1024.3
20260830193346 69 295 6.0 10.0 0.00 0.00 0.00 83 1024.4
20260830191812 69 290 2.0 4.0 0.00 0.00 0.00 84 1024.6
20260830190326 69 263 2.0 4.0 0.00 0.00 0.00 86 1024.6
20260830184815 69 245 2.0 4.0 0.00 0.00 0.00 87 1024.7
20260830183316 69 232 1.0 3.0 0.00 0.00 0.00 86 1024.7
20260830181828 69 232 1.0 1.0 0.00 0.00 0.00 85 1024.7
20260830180315 69 158 0.0 0.0 0.00 0.00 0.00 85 1024.6
20260830174828 69 314 2.0 5.0 0.00 0.00 0.00 84 1024.7
20260830173318 68 309 3.0 10.0 0.00 0.00 0.00 84 1025.0
20260830171829 69 330 4.0 7.0 0.00 0.00 0.00 84 1024.9
20260830170319 68 39 0.0 1.0 0.00 0.00 0.00 86 1024.8
20260830164833 68 354 1.0 3.0 0.00 0.00 0.00 86 1024.9
20260830163329 68 52 0.0 0.0 0.00 0.00 0.00 86 1024.9
20260830161824 68 131 0.0 0.0 0.00 0.00 0.00 85 1025.0
20260830160334 68 131 0.0 0.0 0.00 0.00 0.00 86 1024.9
20260830154827 69 138 0.0 0.0 0.00 0.00 0.00 86 1025.0
20260830153315 69 173 0.0 0.0 0.00 0.00 0.00 84 1024.9